Regional Weather Roundup
Issued by NWS Goodland, KS

Home | Current Version | Previous Version | Graphics & Text | Print | Product List | Glossary On
Versions: 1 2 3 4 5 6 7 8 9 10 11 12 13 14 15 16 17 18 19 20 21 22 23 24 25 26 27 28 29 30 31 32 33 34 35 36 37 38 39 40 41 42 43 44 45 46 47 48 49 50
000
ASUS43 KGLD 241108
RWRGLD

GOODLAND FORECAST AREA HOURLY WEATHER ROUNDUP
NATIONAL WEATHER SERVICE GOODLAND KS
500 AM MDT SAT JUN 24 2017

...OFFICIAL OBSERVATIONS...

CITY           SKY/WX    TMP DP  RH WIND       PRES   REMARKS
GOODLAND KS    CLEAR     50  46  86 S6        30.25S
HILL CITY KS   CLEAR     50  47  89 N5        30.22R
IMPERIAL NEB   CLOUDY    54  47  77 CALM      30.26S
MCCOOK NEB     CLEAR     47  44  90 SW5       30.24S
AKRON CO       CLEAR     46  37  71 CALM      30.29S
BURLINGTON CO  CLEAR     50  46  86 S6        30.27S
LIMON CO       CLOUDY    55  46  71 CALM      30.30F
$$

...UNOFFICIAL OBSERVATIONS...

CITY           SKY/WX    TMP DP  RH WIND       PRES   REMARKS
LENORA KS        N/A     51  32  48 MISG        N/A
NORTON KS      CLEAR     48  41  76 N7        30.23R
SHARON SPRINGS   N/A     52  48  87 CALM        N/A
TRENTON NEB      N/A     48  32  54 CALM        N/A
KIT CARSON CO    N/A     54  46  74 CALM        N/A
YUMA CO        FAIR      50  39  66 CALM      30.27S
$$




USA.gov is the U.S. government's official web portal to all federal, state and local government web resources and services.